Metropolis, IL

6:53 AM CDT on April 23, 2018 (GMT -0500)
Metropolis

Weather History for KM30 - February, 2013

Change the Weather History Date:

Wednesday, February 27, 2013

  Actual Average (KPAH) Record (KPAH)
Temperature  
Mean Temperature 37 °F -  
Max Temperature 40 °F 51 °F 77 °F (1981)
Min Temperature 34 °F 32 °F 11 °F (2015)
Degree Days  
Heating Degree Days 28    
Moisture  
Dew Point 32 °F    
Average Humidity 78    
Maximum Humidity 92    
Minimum Humidity 64    
Precipitation  
Precipitation 0.00 in - - ()
Sea Level Pressure  
Sea Level Pressure 29.82 in    
Wind  
Wind Speed 10 mph (WSW)    
Max Wind Speed 15 mph    
Max Gust Speed 23 mph    
Visibility 10 miles    
Events Rain    
Averages and records for this station are not official NWS values.
T = Trace of Precipitation, MM = Missing Value Source: NWS Daily Summary

Daily Weather History Graph

Daily Weather History Graph

Search for Another Location

Airport or City:

Astronomy

Feb. 27, 2013 Rise Set
Actual Time 6:28 AM CST 5:47 PM CST
Civil Twilight 6:02 AM CST 6:13 PM CST
Nautical Twilight 5:32 AM CST 6:43 PM CST
Astronomical Twilight 5:01 AM CST 7:13 PM CST
Moon 8:03 PM CST (2/27) 7:07 AM CST (2/27)
Length of Visible Light 12h 11m
Length of Day
11h 18m
Waning Gibbous, 96% of the Moon is Illuminated
Feb 27
Waning Gibbous
Mar 4
Last Quarter
Mar 11
New
Mar 19
First Quarter
Mar 27
Full

Hourly Weather History & Observations

Time (CST) Temp. Windchill Dew Point Humidity Pressure Visibility Wind Dir Wind Speed Gust Speed Precip Events Conditions
12:15 AM 39.2 °F 32.5 °F 33.8 °F 81% 29.69 in 10.0 mi West 10.4 mph - N/A   Overcast
12:35 AM 39.2 °F 32.5 °F 33.3 °F 79% 29.70 in 10.0 mi WSW 10.4 mph 16.1 mph N/A   Overcast
12:55 AM 39.2 °F 32.0 °F 33.1 °F 79% 29.71 in 10.0 mi WSW 11.5 mph 17.3 mph N/A   Overcast
1:15 AM 39.2 °F 32.5 °F 32.9 °F 78% 29.71 in 10.0 mi WSW 10.4 mph 17.3 mph N/A   Overcast
1:35 AM 39.2 °F 33.0 °F 33.4 °F 80% 29.72 in 10.0 mi WSW 9.2 mph - N/A   Overcast
1:55 AM 38.8 °F 32.6 °F 33.3 °F 80% 29.72 in 10.0 mi WSW 9.2 mph 16.1 mph N/A   Overcast
2:15 AM 38.7 °F 31.8 °F 33.1 °F 80% 29.72 in 10.0 mi WSW 10.4 mph 17.3 mph N/A   Overcast
2:35 AM 38.5 °F 31.6 °F 32.9 °F 80% 29.72 in 10.0 mi WSW 10.4 mph - N/A   Overcast
2:55 AM 38.3 °F 32.5 °F 32.9 °F 81% 29.71 in 10.0 mi WSW 8.1 mph - N/A   Overcast
3:15 AM 38.3 °F 32.5 °F 32.9 °F 81% 29.72 in 10.0 mi WSW 8.1 mph - N/A   Overcast
3:35 AM 38.3 °F 31.9 °F 32.5 °F 80% 29.71 in 10.0 mi WSW 9.2 mph - N/A   Overcast
3:55 AM 38.3 °F 31.9 °F 32.4 °F 79% 29.73 in 10.0 mi WSW 9.2 mph - N/A   Overcast
4:15 AM 38.3 °F 31.4 °F 32.5 °F 80% 29.75 in 10.0 mi WSW 10.4 mph - N/A   Overcast
4:35 AM 38.3 °F 31.4 °F 32.4 °F 79% 29.75 in 10.0 mi WSW 10.4 mph - N/A   Overcast
4:55 AM 38.1 °F 30.7 °F 32.4 °F 80% 29.76 in 10.0 mi WSW 11.5 mph 16.1 mph N/A   Overcast
5:35 AM 37.9 °F 30.9 °F 32.0 °F 79% 29.77 in 10.0 mi West 10.4 mph - N/A   Overcast
5:55 AM 37.9 °F 31.5 °F 32.0 °F 79% 29.78 in 10.0 mi WSW 9.2 mph - N/A   Overcast
6:15 AM 37.9 °F 31.5 °F 32.0 °F 79% 29.78 in 10.0 mi WSW 9.2 mph - N/A   Overcast
6:35 AM 37.9 °F 32.1 °F 32.0 °F 79% 29.78 in 10.0 mi WSW 8.1 mph - N/A   Overcast
6:55 AM 37.9 °F 31.5 °F 32.0 °F 79% 29.79 in 10.0 mi West 9.2 mph - N/A   Overcast
7:15 AM 37.8 °F 31.8 °F 31.5 °F 78% 29.80 in 10.0 mi West 8.1 mph 16.1 mph N/A   Overcast
7:35 AM 37.8 °F 32.5 °F 31.3 °F 77% 29.80 in 10.0 mi West 6.9 mph - N/A   Overcast
7:55 AM 37.8 °F 33.3 °F 31.5 °F 78% 29.81 in 10.0 mi WSW 5.8 mph - N/A   Overcast
8:15 AM 37.9 °F 31.5 °F 31.1 °F 76% 29.81 in 10.0 mi WSW 9.2 mph - N/A   Overcast
8:55 AM 38.3 °F 30.9 °F 30.4 °F 73% 29.82 in 10.0 mi WSW 11.5 mph 16.1 mph N/A   Overcast
9:35 AM 38.8 °F 32.1 °F 30.7 °F 73% 29.82 in 10.0 mi WSW 10.4 mph - N/A   Overcast
9:55 AM 39.4 °F 31.1 °F 29.8 °F 69% 29.82 in 10.0 mi West 15.0 mph 18.4 mph N/A   Overcast
10:15 AM 39.4 °F 33.2 °F 29.7 °F 68% 29.82 in 10.0 mi WSW 9.2 mph - N/A   Overcast
10:35 AM 40.1 °F 33.2 °F 30.0 °F 67% 29.82 in 10.0 mi WSW 11.5 mph 17.3 mph N/A   Overcast
10:55 AM 39.9 °F 34.5 °F 29.8 °F 67% 29.82 in 10.0 mi WSW 8.1 mph 17.3 mph N/A   Overcast
11:15 AM 39.9 °F 32.5 °F 29.8 °F 67% 29.82 in 10.0 mi West 12.7 mph 17.3 mph N/A   Overcast
11:35 AM 39.6 °F 31.7 °F 28.2 °F 64% 29.82 in 10.0 mi WSW 13.8 mph 20.7 mph N/A   Overcast
11:55 AM 39.4 °F 31.8 °F 28.9 °F 66% 29.83 in 10.0 mi SW 12.7 mph 19.6 mph N/A   Overcast
12:15 PM 39.6 °F 31.3 °F 29.5 °F 67% 29.83 in 10.0 mi WSW 15.0 mph 18.4 mph N/A   Overcast
12:35 PM 39.6 °F 33.0 °F 29.7 °F 68% 29.82 in 10.0 mi WSW 10.4 mph 18.4 mph N/A   Overcast
12:55 PM 39.9 °F 32.5 °F 29.1 °F 65% 29.82 in 10.0 mi WSW 12.7 mph 21.9 mph N/A   Overcast
1:15 PM 39.4 °F 31.1 °F 30.2 °F 70% 29.82 in 10.0 mi SW 15.0 mph 18.4 mph N/A   Overcast
1:35 PM 39.6 °F 32.5 °F 30.4 °F 70% 29.82 in 10.0 mi West 11.5 mph 20.7 mph N/A   Overcast
1:55 PM 39.6 °F 31.7 °F 30.4 °F 70% 29.82 in 10.0 mi West 13.8 mph 21.9 mph N/A   Overcast
2:35 PM 38.5 °F 31.6 °F 32.7 °F 80% 29.83 in 10.0 mi WSW 10.4 mph 16.1 mph N/A   Drizzle
2:55 PM 38.5 °F 31.1 °F 32.9 °F 80% 29.83 in 7.0 mi West 11.5 mph 23.0 mph N/A   Overcast
3:15 PM 38.3 °F 31.9 °F 33.1 °F 81% 29.83 in 10.0 mi West 9.2 mph 17.3 mph N/A   Light Drizzle
3:35 PM 39.2 °F 31.6 °F 33.4 °F 80% 29.83 in 10.0 mi WSW 12.7 mph 17.3 mph N/A   Overcast
3:55 PM 38.8 °F 32.1 °F 32.9 °F 79% 29.83 in 10.0 mi WSW 10.4 mph - N/A   Overcast
4:15 PM 38.1 °F 29.5 °F 32.9 °F 81% 29.84 in 10.0 mi WSW 15.0 mph 21.9 mph N/A Rain Light Rain
4:35 PM 37.8 °F 30.2 °F 32.2 °F 80% 29.85 in 10.0 mi West 11.5 mph 17.3 mph N/A Rain Rain
4:55 PM 37.8 °F 30.2 °F 32.7 °F 82% 29.85 in 10.0 mi WSW 11.5 mph - N/A   Overcast
5:15 PM 38.1 °F 31.2 °F 32.0 °F 79% 29.85 in 10.0 mi WSW 10.4 mph - N/A   Overcast
5:35 PM 38.3 °F 33.2 °F 32.4 °F 79% 29.86 in 10.0 mi WSW 6.9 mph - N/A   Overcast
5:55 PM 38.3 °F 33.2 °F 32.4 °F 79% 29.86 in 10.0 mi WSW 6.9 mph - N/A   Overcast
6:15 PM 38.3 °F 31.4 °F 31.8 °F 77% 29.87 in 10.0 mi West 10.4 mph - N/A   Drizzle
6:35 PM 37.6 °F 29.6 °F 31.5 °F 79% 29.88 in 10.0 mi West 12.7 mph 18.4 mph N/A Rain Light Rain
6:55 PM 37.4 °F 30.3 °F 32.0 °F 81% 29.88 in 10.0 mi West 10.4 mph - N/A Rain Rain
7:15 PM 36.7 °F 28.9 °F 32.0 °F 83% 29.89 in 10.0 mi West 11.5 mph - N/A Rain Light Rain
7:35 PM 36.5 °F 29.7 °F 32.2 °F 84% 29.89 in 10.0 mi West 9.2 mph - N/A Rain Light Rain
7:55 PM 36.1 °F 30.6 °F 32.4 °F 86% 29.89 in 10.0 mi West 6.9 mph - N/A Rain Light Rain
8:15 PM 35.6 °F 29.9 °F 32.9 °F 90% 29.89 in 7.0 mi West 6.9 mph - N/A Rain Light Rain
8:35 PM 35.4 °F 28.4 °F 33.3 °F 92% 29.90 in 7.0 mi West 9.2 mph - N/A Rain Light Rain
8:55 PM 35.6 °F 29.9 °F 32.5 °F 89% 29.90 in 10.0 mi West 6.9 mph - N/A   Overcast
9:15 PM 35.6 °F 30.7 °F 32.9 °F 90% 29.90 in 10.0 mi West 5.8 mph - N/A   Overcast
9:35 PM 35.6 °F 28.0 °F 32.2 °F 87% 29.90 in 10.0 mi West 10.4 mph - N/A   Overcast
9:55 PM 35.6 °F 28.6 °F 30.0 °F 80% 29.90 in 10.0 mi WNW 9.2 mph 16.1 mph N/A   Overcast
10:15 PM 35.1 °F 27.4 °F 28.9 °F 78% 29.90 in 10.0 mi WNW 10.4 mph 16.1 mph N/A   Overcast
10:35 PM 35.1 °F 27.9 °F 28.9 °F 78% 29.90 in 10.0 mi West 9.2 mph - N/A   Overcast
10:55 PM 34.5 °F 27.9 °F 29.1 °F 81% 29.90 in 10.0 mi West 8.1 mph - N/A   Mostly Cloudy
11:15 PM 34.7 °F 28.1 °F 28.9 °F 79% 29.89 in 10.0 mi WNW 8.1 mph - N/A   Mostly Cloudy